Total_Precipitation_Accumulation
1.50 1.37 2.20 2.18 1.92 1.71 1.65 1.66 1.74 1.86 1.94 1.96 1.90 1.80 1.64 1.53 1.56 1.67 1.75 1.73 1.66 1.65 1.62 1.58 1.58 1.65 1.57 1.41 1.46 1.61 1.83 1.97 1.82 1.74 1.76 1.79 1.91 1.96 2.22 2.47 2.51 2.50 2.45
1.13 1.24 2.05 2.04 1.85 1.63 1.60 1.67 1.70 1.70 1.71 1.81 1.89 1.74 1.65 1.62 1.68 1.75 1.76 1.72 1.66 1.63 1.62 1.61 1.69 1.68 1.52 1.44 1.56 1.76 1.88 1.96 1.89 1.91 2.07 2.05 2.08 2.18 2.28 2.40 2.49 2.55 2.48
1.00 1.12 1.61 1.94 1.85 1.71 1.64 1.62 1.70 1.72 1.65 1.71 1.77 1.77 1.69 1.81 1.91 1.90 1.82 1.75 1.76 1.71 1.69 1.63 1.63 1.67 1.52 1.56 1.79 1.88 1.76 1.83 2.10 2.21 2.49 2.68 2.26 2.21 2.23 2.35 2.31 2.36 2.41
0.88 1.02 1.44 1.98 1.91 1.83 1.80 1.80 1.87 1.83 1.63 1.59 1.59 1.56 1.57 1.71 1.89 2.04 2.02 1.89 1.90 1.81 1.66 1.52 1.47 1.61 1.57 1.59 1.81 1.80 1.71 1.84 2.17 2.30 2.42 2.61 2.50 2.42 2.52 2.56 2.47 2.40 2.52
0.92 1.00 1.55 2.11 1.93 1.84 1.84 1.97 1.97 1.81 1.71 1.61 1.57 1.54 1.56 1.70 1.86 1.99 1.89 1.88 1.93 1.88 1.73 1.67 1.63 1.72 1.70 1.73 1.77 1.81 1.89 2.01 2.16 1.99 2.16 2.46 3.04 2.99 2.56 2.69 2.75 2.61 2.47
0.82 0.91 1.40 2.04 1.92 1.76 1.75 1.92 1.88 1.75 1.80 1.70 1.62 1.62 1.70 1.87 2.10 2.14 2.01 2.05 1.94 1.90 1.78 1.78 1.76 1.81 1.79 1.79 1.80 1.90 2.03 2.09 1.89 1.92 2.15 2.43 2.94 3.04 2.48 2.50 2.60 2.62 2.52
0.80 0.84 1.16 1.77 1.80 1.66 1.61 1.71 1.71 1.77 1.85 1.74 1.67 1.70 1.81 1.92 2.08 2.24 2.20 2.14 2.10 2.02 1.89 1.81 1.80 1.75 1.74 1.78 1.76 1.87 2.02 1.91 1.64 1.95 2.08 2.45 2.66 2.73 2.37 2.33 2.44 2.62 2.85
0.90 0.82 0.98 1.51 1.65 1.58 1.58 1.61 1.59 1.64 1.67 1.63 1.68 1.72 1.75 1.81 1.93 2.06 2.13 2.19 2.12 2.02 2.01 1.95 1.91 1.80 1.76 1.70 1.76 1.89 1.94 1.63 1.28 1.61 1.97 2.41 2.90 2.87 2.39 2.26 2.39 2.59 2.94
1.26 1.09 1.07 1.19 1.27 1.39 1.53 1.59 1.71 1.76 1.63 1.53 1.51 1.57 1.60 1.63 1.71 1.77 1.87 1.97 1.95 1.97 1.96 1.92 1.85 1.84 1.85 1.72 1.66 1.73 1.73 1.56 1.40 1.55 1.52 2.32 3.06 2.91 2.45 2.25 2.26 2.42 2.64
1.30 1.24 1.18 1.19 1.15 1.16 1.28 1.61 1.92 1.98 1.82 1.59 1.50 1.43 1.54 1.50 1.53 1.63 1.64 1.86 1.97 1.95 1.96 1.99 1.91 1.82 1.87 1.84 1.74 1.66 1.58 1.36 1.23 1.32 1.65 2.30 3.03 2.90 2.52 2.24 2.11 2.01 2.18
1.22 1.24 1.18 1.19 1.21 1.29 1.35 1.48 1.84 2.04 2.01 1.58 1.34 1.33 1.29 1.21 1.29 1.38 1.41 1.86 2.04 2.15 2.17 2.13 1.98 1.85 1.77 1.77 1.79 1.69 1.33 1.13 1.13 1.29 1.70 2.58 3.14 3.09 2.61 2.25 2.07 1.90 1.79
1.07 1.08 1.09 1.10 1.09 1.11 1.14 1.52 1.83 1.70 1.76 1.41 1.31 1.25 1.22 1.29 1.33 1.18 1.32 1.79 2.02 2.16 2.16 2.08 1.99 1.76 1.53 1.39 1.39 1.35 1.09 0.92 0.98 1.18 1.83 2.86 3.43 3.42 2.85 2.32 1.97 1.80 1.76
0.94 0.85 0.81 0.87 0.85 0.86 0.97 1.15 1.48 1.74 1.73 1.66 1.57 1.44 1.41 1.31 1.18 1.17 1.31 1.47 1.68 1.78 1.69 1.74 1.72 1.53 1.37 1.32 1.30 1.16 1.05 0.91 1.02 1.22 1.94 2.78 3.34 3.52 3.10 2.44 2.01 1.95 2.01
0.99 0.97 0.80 0.73 0.73 0.74 0.79 0.94 1.20 1.43 1.50 1.49 1.41 1.26 1.44 1.41 1.22 1.24 1.46 1.59 1.63 1.72 1.85 1.83 1.77 1.61 1.43 1.30 1.28 1.16 1.07 1.04 1.05 1.19 1.83 2.36 2.92 3.25 3.22 2.79 2.34 2.13 2.05
1.00 1.06 0.93 0.73 0.69 0.75 0.78 0.84 0.91 1.14 1.24 1.22 1.35 1.25 1.28 1.31 1.19 1.16 1.28 1.54 1.63 1.67 1.88 1.96 1.77 1.66 1.65 1.58 1.48 1.37 1.30 1.22 1.22 1.20 1.56 1.96 2.41 2.94 3.35 3.27 2.87 2.37 2.22
0.89 0.95 0.91 0.80 0.78 0.78 0.75 0.71 0.72 0.75 0.93 0.93 0.93 0.88 1.06 1.23 1.23 1.26 1.22 1.39 1.65 1.73 1.79 1.83 1.75 1.67 1.63 1.62 1.53 1.49 1.46 1.26 1.35 1.36 1.45 1.54 1.76 2.16 2.86 3.27 3.05 2.60 2.46
0.75 0.80 0.85 0.86 0.84 0.82 0.83 0.80 0.74 0.75 0.81 0.88 0.92 0.91 1.01 1.14 1.23 1.24 1.16 1.26 1.50 1.72 1.79 1.78 1.72 1.73 1.54 1.45 1.52 1.56 1.54 1.42 1.46 1.51 1.49 1.47 1.40 1.64 2.22 2.87 3.02 2.85 2.78
0.58 0.64 0.71 0.72 0.78 0.83 0.86 0.90 0.86 0.88 0.88 0.86 0.90 0.90 0.91 1.06 1.21 1.31 1.25 1.22 1.41 1.66 1.91 2.05 1.93 1.83 1.69 1.57 1.61 1.62 1.54 1.58 1.56 1.56 1.52 1.52 1.53 1.42 1.59 1.91 2.32 2.74 2.93
0.46 0.46 0.52 0.59 0.69 0.77 0.84 0.92 0.89 0.90 1.04 1.09 0.97 0.88 0.94 1.05 1.14 1.37 1.49 1.42 1.47 1.69 1.81 1.89 1.94 1.80 1.77 1.68 1.54 1.51 1.49 1.59 1.65 1.50 1.49 1.50 1.56 1.52 1.46 1.33 1.49 1.86 2.39
0.42 0.41 0.44 0.52 0.57 0.59 0.75 0.91 1.00 0.95 1.00 1.20 1.24 1.26 1.31 1.36 1.37 1.50 1.62 1.65 1.67 1.79 1.82 1.99 2.21 2.00 1.80 1.76 1.59 1.48 1.45 1.52 1.56 1.56 1.62 1.61 1.61 1.57 1.54 1.39 1.32 1.19 1.53
0.41 0.38 0.43 0.49 0.53 0.54 0.66 0.80 0.90 0.99 1.13 1.31 1.36 1.43 1.58 1.63 1.63 1.72 1.82 1.89 1.86 1.81 1.90 2.10 2.51 2.40 2.04 1.82 1.83 1.70 1.56 1.53 1.59 1.55 1.68 1.76 1.67 1.62 1.64 1.56 1.40 1.25 1.16
0.38 0.36 0.38 0.49 0.58 0.62 0.68 0.83 1.00 1.23 1.32 1.44 1.61 1.61 1.62 1.68 1.73 1.79 1.98 2.10 2.07 2.08 2.17 2.25 2.54 2.73 2.45 2.23 2.23 2.40 2.16 1.95 1.62 1.37 1.42 1.54 1.60 1.64 1.62 1.63 1.51 1.36 1.31
0.34 0.42 0.44 0.56 0.76 0.93 1.01 1.22 1.52 1.78 1.84 1.77 1.79 1.87 1.84 1.85 1.93 1.88 1.95 2.16 2.17 2.18 2.26 2.47 2.79 3.13 3.09 2.78 2.53 2.71 2.46 2.17 2.08 1.58 1.28 1.34 1.48 1.60 1.62 1.68 1.63 1.49 1.45
0.35 0.49 0.68 0.88 1.18 1.40 1.50 1.66 1.89 2.00 2.04 1.96 1.97 2.00 2.01 1.92 1.85 1.85 1.93 2.11 2.28 2.42 2.56 2.63 2.61 3.03 3.37 3.18 2.95 2.57 2.25 2.11 2.26 2.13 1.64 1.35 1.39 1.44 1.50 1.50 1.60 1.67 1.62
0.60 0.81 1.16 1.44 1.63 1.76 1.79 1.85 2.03 2.17 2.33 2.36 2.26 2.11 2.05 2.03 1.97 1.88 1.90 1.94 1.99 2.11 2.28 2.43 2.48 2.74 3.00 3.18 3.15 2.92 2.61 2.42 1.98 1.98 2.06 1.81 1.54 1.32 1.30 1.42 1.59 1.67 1.66
1.02 1.23 1.47 1.62 1.77 1.75 1.71 1.73 1.85 2.04 2.20 2.23 2.27 2.24 2.14 2.06 1.97 1.84 1.77 1.84 1.86 1.87 2.02 2.15 2.26 2.54 2.76 2.92 2.98 2.90 2.79 2.71 2.38 2.11 1.95 1.91 1.77 1.53 1.37 1.36 1.43 1.51 1.59